STARLINK-5692, 55483

Orbit data source: Space-Track

STARLINK-5692, 55483 is a payload satellite owned by SpaceX/Seattle (US) in LEO that was launched on Thu, 02 Feb 2023 UTC via an FALCON 9 launch vehicle from the Air Force Eastern Test Range (AFETR). Payload-class satellites include a variety of spacecraft equipped with specific instruments for various scientific and technological missions. These include communications satellites like Starlink; space stations such as the ISS; scientific satellites like the Hubble; Earth observation satellites from companies like Planet Labs, Umbra, and HawkEye 360; GPS; miniature CubeSats for education and research; and military/defense satellites.

Loading next visibility...
Identifier
55483, 2023-015AL
Orbit
LEO
Country
Flag of USUS
Related business
Manufacturer
SpaceX/Seattle
Mission
Operational Commercial Communications
Bus & Motor
STARLINK, Unknown motor
Mass
305 kg wet, ~290 kg dry
Launch date (UTC)
2023-02-02 (3 years ago)
Launch vehicle
FALCON 9
Launch site
Air Force Eastern Test Range (AFETR)
Object type
Payload
Rocket body
Debris
Shape & HBR
Box + 1 Pan, 10.1 m
Radar Cross Section
13.562 m², Large (>1 m²)

Expand to show TLE details & history
Last TLE update: 14 hours ago

TLE from 14 hours ago
0 STARLINK-5692
1 55483U 23015AL  25302.39585086 -.00004630  00000-0 -32781-3 0  9991
2 55483  43.0057 332.4245 0001617 276.4873  83.5785 15.02547019150850
Epoch: 2025-10-29T09:30Z
TLE epoch observation values (Epoch: 2025-10-29T09:30:01.514Z)
Latitude
-0.00003°
Longitude
151.94856°
Altitude
558.699 km
Speed
7.584 km/s
True Right ascension
22h 09m 41s
True Declination
0° 00' 00"
Sunlit
Object was in full shadow at epoch
Visualization orbit readout
Latitude
Unknown
Longitude
Unknown
Altitude
Unknown
Speed
Unknown
Apparent Right ascension
Unknown
Apparent Declination
Unknown
Sunlit
N/A
Visualization observer readout
Local Sidereal Time
18:38:52
Azimuth
Unknown
Elevation
Unknown
Doppler factor
Unknown
Orbital elements
Apogee altitude
562.091 km
Perigee altitude
559.847 km
Semi-major axis
6,939.106 km
Eccentricity
0.00016
Inclination
43.0057°
RAAN
332.4245°
Arg. of periapsis
276.4873°
True anomaly
83.59691°
Mean anomaly
83.5785°
Eccentric anomaly
83.58771°
Mean motion
3.75481 °/min
Orbital period
95.88 mins
BSTAR
-0.00032781
Loading maneuver chart data...
Computing Atmospheric mass density...
Loading historical data...
Loading historical data...
Loading historical data...
Loading historical data...
Loading historical data...
Loading historical data...
Loading historical data...

Documentation

Showing up to 5 results
|